This demonstration page uses our WeatherBlox Daily Observations layout. Learn more.

Left ArrowRight Arrow

44.8408, -93.29828

Hourly Observations for March 22, 2022

Temp ( °F °C ) Dew Point ( °F °C ) Humidity (%) Winds ( mph kmh ) Pressure ( in mb ) Visibility ( mi km ) Precip ( " mm )
12:53 am 00:53 Cloudy 46 7.8 36 2.2 68 68 SSE 7 11 29.92 1013 10 16 0.00 0.00
1:53 am 01:53 Mostly Cloudy 46 7.8 35 1.7 66 66 SE 9 15 29.92 1013 10 16 0.00 0.00
2:53 am 02:53 Cloudy 46 7.8 36 2.2 68 68 S 3 6 29.93 1013 10 16 0.00 0.00
3:53 am 03:53 Cloudy with Light Rain 44 6.7 37 2.8 76 76 E 8 13 29.90 1012 10 16 0.00 0.00
4:53 am 04:53 Cloudy with Light Rain 43 6.1 36 2.2 76 76 ENE 5 7 29.90 1012 10 16 0.00 0.00
5:53 am 05:53 Cloudy with Light Rain 42 5.6 36 2.2 79 79 E 10 17 29.89 1012 10 16 0.00 0.00
6:31 am 06:31 Cloudy with Light Rain 41 5 36 2.2 82 82 SE 6 9 29.90 1012 10 16 0.00 0.00
6:53 am 06:53 Cloudy 41 5 36 2.2 82 82 E 8 13 29.88 1012 10 16 0.00 0.00
7:03 am 07:03 Cloudy 40 4.4 36 2.2 86 86 E 8 13 29.89 1012 10 16 0.00 0.00
7:53 am 07:53 Cloudy 40 4.4 36 2.2 86 86 E 10 17 29.85 1011 10 16 0.00 0.00
8:53 am 08:53 Cloudy with Light Rain 40 4.4 35 1.7 83 83 E 8 13 29.89 1012 8 13 0.00 0.00
9:53 am 09:53 Cloudy with Light Rain 40 4.4 36 2.2 86 86 E 7 11 29.91 1013 8 13 0.04 1.02
10:53 am 10:53 Cloudy with Light Rain 40 4.4 37 2.8 89 89 E 8 13 29.88 1012 6 10 0.06 1.52
11:08 am 11:08 Cloudy with Light Rain 40 4.4 37 2.8 89 89 ENE 10 17 29.90 1013 6 10 0.03 0.76
11:33 am 11:33 Cloudy with Light Rain 40 4.4 37 2.8 89 89 E 9 15 29.91 1013 6 10 0.08 2.03
11:46 am 11:46 Cloudy with Light Rain 40 4.4 37 2.8 89 89 NE 7 11 29.89 1012 6 10 0.09 2.29
11:53 am 11:53 Cloudy with Light Rain 40 4.4 37 2.8 89 89 ENE 7 11 29.88 1012 6 10 0.10 2.54
12:53 pm 12:53 Cloudy with Rain 41 5 38 3.3 89 89 NNE 10 17 29.85 1011 4 6 0.11 2.79
1:16 pm 13:16 Cloudy with Rain 41 5 38 3.3 89 89 NNE 8 13 29.85 1011 3 4 0.05 1.27
1:23 pm 13:23 Cloudy with Rain 41 5 39 3.9 93 93 NNE 8 13 29.85 1011 3 5 0.07 1.78
1:33 pm 13:33 Cloudy with Rain 41 5 38 3.3 89 89 NNE 9 15 29.84 1010 3 5 0.10 2.54
1:53 pm 13:53 Cloudy with Rain 40 4.4 38 3.3 93 93 NNE 10 17 29.81 1009 3 5 0.16 4.06
1:58 pm 13:58 Cloudy with Rain 41 5 38 3.3 89 89 NNE 13 20 29.82 1010 3 5 0.01 0.25
2:33 pm 14:33 Cloudy with Rain 41 5 38 3.3 89 89 NNE 16 26 29.80 1009 3 4 0.08 2.03
2:45 pm 14:45 Cloudy with Rain 41 5 39 3.9 93 93 E 9 15 29.81 1009 3 5 0.12 3.05
2:53 pm 14:53 Cloudy with Light Rain 41 5 39 3.9 93 93 ENE 9 15 29.79 1009 4 6 0.13 3.30
3:10 pm 15:10 Cloudy with Light Rain 41 5 39 3.9 93 93 NE 13 20 29.80 1009 6 10 0.02 0.51
3:27 pm 15:27 Cloudy with Rain 42 5.6 39 3.9 89 89 NNE 12 19 29.80 1009 5 8 0.04 1.02
3:53 pm 15:53 Cloudy with Light Rain 42 5.6 39 3.9 89 89 NNE 14 22 29.78 1008 5 8 0.09 2.29
4:05 pm 16:05 Cloudy with Light Rain 42 5.6 39 3.9 89 89 NNE 14 22 29.79 1009 5 8 0.01 0.25
4:18 pm 16:18 Cloudy with Light Rain 42 5.6 39 3.9 89 89 NNE 10 17 29.79 1009 6 10 0.03 0.76
4:53 pm 16:53 Cloudy with Light Rain 41 5 39 3.9 93 93 NNE 13 20 29.76 1008 4 6 0.07 1.78
5:53 pm 17:53 Cloudy with Light Rain 40 4.4 37 2.8 89 89 NE 13 20 29.80 1009 4 6 0.05 1.27
6:53 pm 18:53 Cloudy with Light Rain 39 3.9 36 2.2 89 89 NNE 14 22 29.80 1009 4 6 0.04 1.02
7:53 pm 19:53 Cloudy with Light Rain 38 3.3 35 1.7 89 89 NNE 12 19 29.80 1009 10 16 0.02 0.51
8:25 pm 20:25 Cloudy with Light Rain 37 2.8 35 1.7 93 93 NNE 12 19 29.83 1010 7 11 0.00 0.00
8:53 pm 20:53 Cloudy with Light Rain 37 2.8 35 1.7 93 93 N 12 19 29.80 1009 5 8 0.01 0.25
9:08 pm 21:08 Cloudy with Light Rain 37 2.8 35 1.7 93 93 N 10 17 29.82 1010 7 11 0.00 0.00
9:23 pm 21:23 Cloudy with Light Rain 36 2.2 34 1.1 93 93 N 13 20 29.82 1010 8 13 0.00 0.00
9:53 pm 21:53 Cloudy with Light Rain 36 2.2 34 1.1 93 93 NNE 13 20 29.79 1009 10 16 0.00 0.00
10:02 pm 22:02 Cloudy with Light Rain 36 2.2 34 1.1 93 93 NNE 16 26 29.81 1009 10 16 0.00 0.00
10:53 pm 22:53 Cloudy with Light Rain 36 2.2 34 1.1 93 93 NNE 14 22 29.78 1009 10 16 0.00 0.00
11:53 pm 23:53 Cloudy 36 2.2 33 0.6 89 89 NNE 13 20 29.78 1008 10 16 0.00 0.00

Powered by AerisWeather